UPS11C BGGH-CYUL

Flight info

Callsign UPS11C
Flight time N/A
Altitude 36000
Route AMABI1A AMABI DCT EMBOK DCT PEPKI/N0472F360 DCT OBRET LFLER7
Aircraft MD11/H-SDE1E2E3FGHIJ2J3J4J5M1RWXY/LB1D1

Departure

Time 2026-04-27 17:28
Airport Nuuk International Airport (BGGH)

Arrival

Time N/A
Airport Montreal / Pierre Elliott Trudeau International Airport (CYUL)
Time Latitude Longitude Altitude Speed Heading
2026-04-27 16:53 64.18554 -51.67759 289 ft 0 kts 148°
2026-04-27 17:13 64.18565 -51.67775 294 ft 4 kts 144°
2026-04-27 17:14 64.18586 -51.67813 292 ft 4 kts 131°
2026-04-27 17:14 64.18601 -51.67861 294 ft 4 kts 109°
2026-04-27 17:14 64.18605 -51.67909 294 ft 4 kts 69°
2026-04-27 17:14 64.18598 -51.67939 294 ft 1 kts 28°
2026-04-27 17:15 64.18597 -51.67939 294 ft 0 kts 28°
2026-04-27 17:21 64.18599 -51.67939 294 ft 1 kts 22°
2026-04-27 17:21 64.18605 -51.67944 293 ft 1 kts 351°
2026-04-27 17:21 64.18618 -51.67977 292 ft 7 kts 312°
2026-04-27 17:22 64.18641 -51.68083 292 ft 13 kts 287°
2026-04-27 17:22 64.18650 -51.68217 292 ft 4 kts 255°
2026-04-27 17:22 64.18621 -51.68263 295 ft 11 kts 202°
2026-04-27 17:22 64.18494 -51.68363 294 ft 23 kts 202°
2026-04-27 17:23 64.18332 -51.68499 292 ft 27 kts 198°
2026-04-27 17:23 64.18200 -51.68519 288 ft 8 kts 176°
2026-04-27 17:23 64.18177 -51.68547 290 ft 1 kts 239°
2026-04-27 17:23 64.18181 -51.68567 289 ft 1 kts 288°
2026-04-27 17:24 64.18193 -51.68582 287 ft 4 kts 333°
2026-04-27 17:24 64.18225 -51.68572 288 ft 2 kts 18°
2026-04-27 17:24 64.18248 -51.68556 287 ft 11 kts 18°
2026-04-27 17:24 64.18254 -51.68551 287 ft 0 kts 18°
2026-04-27 17:28 64.18255 -51.68550 287 ft 3 kts 18°
2026-04-27 17:28 64.18546 -51.68342 295 ft 83 kts 18°
2026-04-27 17:28 64.20459 -51.66968 1534 ft 191 kts 13°
2026-04-27 17:29 64.21704 -51.66301 3301 ft 162 kts
2026-04-27 17:29 64.22720 -51.66910 5328 ft 149 kts 326°
2026-04-27 17:29 64.23266 -51.68852 7061 ft 149 kts 288°
2026-04-27 17:29 64.23082 -51.71250 8700 ft 163 kts 253°
2026-04-27 17:30 64.22471 -51.73550 10125 ft 173 kts 251°
2026-04-27 17:30 64.21197 -51.78317 12822 ft 180 kts 253°
2026-04-27 17:30 64.20537 -51.80795 14088 ft 184 kts 253°
2026-04-27 17:31 64.19859 -51.83340 15141 ft 188 kts 254°
2026-04-27 17:31 64.19175 -51.85884 16256 ft 188 kts 255°
2026-04-27 17:31 64.18529 -51.88497 17283 ft 187 kts 259°
2026-04-27 17:31 64.17968 -51.91161 18204 ft 189 kts 262°
2026-04-27 17:32 64.17464 -51.93917 19011 ft 187 kts 264°
2026-04-27 17:32 64.16601 -51.99579 20442 ft 189 kts 267°
2026-04-27 17:32 64.16219 -52.02469 21111 ft 190 kts 268°
2026-04-27 17:33 64.15860 -52.05396 21733 ft 192 kts 269°
2026-04-27 17:33 64.15516 -52.08370 22298 ft 195 kts 269°
2026-04-27 17:33 64.15179 -52.11513 22625 ft 206 kts 269°
2026-04-27 17:33 64.14840 -52.14668 23320 ft 204 kts 269°
2026-04-27 17:34 64.14511 -52.17839 23810 ft 205 kts 269°